Home   Weather   Marburg   Past weeks

Flag for Germany Past Weather in Marburg, Hesse, Germany — Yesterday and Last 2 Weeks

Now
59 °F

Passing clouds.


Feels Like: 60 °F
Forecast: 60 / 74 °F
Wind: 3 mph from West

Location: Fritzlar Airport

Current Time: Aug 17, 2017 at 6:00:40 am

Latest Report: Aug 17, 2017 at 5:20 am


Visibility: N/A

Pressure: 30.07 "Hg

Humidity: 94%

Dew Point: 57 °F

Location of MarburgLocation

Past Weather in Marburg — Graph

°F

Marburg Temperature Yesterday

Maximum temperature yesterday: 77 °F (at 4:20 pm)
Minimum temperature yesterday: 61 °F (at 1:20 am)
Average temperature yesterday: 67 °F

High & Low Weather Summary for the Past Weeks

 TemperatureHumidityPressure
High81 °F (Aug 3, 3:20 pm)100% (Aug 2, 4:20 am)30.21 "Hg (Aug 2, 4:20 am)
Low46 °F (Aug 7, 5:20 am)34% (Aug 7, 3:20 pm)29.80 "Hg (Aug 8, 4:20 pm)
Average63 °F77%30.04 "Hg
* Reported Aug 2 4:20 am — Aug 17 4:20 am, Marburg. Weather by CustomWeather, © 2017

Note: Actual official high and low records may vary slightly from our data, if they occured in-between our weather recording intervals... More about our weather records

Advertising

Marburg Weather History for the Previous 24 Hours

Scroll right to see more
 ConditionsComfort  
Time TempWeatherWind HumidityBarometerVisibility
4:20 am
Thu, Aug 17
59 °FPartly cloudy.6 mph94%30.09 "HgN/A
3:20 am59 °FPartly cloudy.3 mph94%30.09 "HgN/A
2:20 am59 °FPassing clouds.2 mph94%30.09 "HgN/A
1:20 am61 °FPartly cloudy.2 mph88%30.12 "HgN/A
12:20 am61 °FPartly cloudy.2 mph88%30.12 "HgN/A
11:20 pm
Wed, Aug 16
63 °FPartly cloudy.3 mph88%30.15 "HgN/A
10:20 pm63 °FPartly cloudy.2 mph88%30.15 "HgN/A
9:20 pm66 °FPartly cloudy.1 mph83%30.15 "HgN/A
8:20 pm72 °FPartly sunny.2 mph61%30.12 "HgN/A
7:20 pm73 °FPartly sunny.2 mph53%30.12 "HgN/A
6:20 pm73 °FPartly sunny.3 mph53%30.12 "HgN/A
5:20 pm75 °FBroken clouds.3 mph47%30.12 "HgN/A
4:20 pm77 °FBroken clouds.3 mph42%30.12 "HgN/A
3:20 pm75 °FBroken clouds.5 mph47%30.15 "HgN/A
2:20 pm73 °FBroken clouds.5 mph50%30.15 "HgN/A
1:20 pm73 °FScattered clouds.5 mph53%30.15 "HgN/A
12:20 pm72 °FScattered clouds.2 mph61%30.15 "HgN/A
11:20 am72 °FScattered clouds.1 mph69%30.18 "HgN/A
10:20 am68 °FScattered clouds.3 mph78%30.18 "HgN/A
9:20 am66 °FFog.2 mph88%30.15 "HgN/A
8:20 am64 °FFog.1 mph94%30.15 "HgN/A
7:20 am61 °FFog.1 mph100%30.12 "HgN/A
6:20 am63 °FFog.No wind94%30.12 "HgN/A
Weather by CustomWeather, © 2017

See weather overviewHow to use our weather pages